[Iaude] MPEC B84: 2024 BA2 [a=1.50,e=0.25,i=16.3,H=23.6]
    mpec at marsden.cfa.harvard.edu 
    mpec at marsden.cfa.harvard.edu
       
    Sun Jan 21 09:29:55 EST 2024
    
    
  
M.P.E.C. 2024-B84                              Issued 2024 January 21, 14:27 UT
     The Minor Planet Electronic Circulars contain information on unusual
         minor planets, routine data on comets and natural satellites,
         and occasional editorial announcements.  They are published
    on behalf of Division F of the International Astronomical Union by the
          Minor Planet Center, Smithsonian Astrophysical Observatory,
                          Cambridge, MA 02138, U.S.A.
			  
             Prepared using the Tamkin Foundation Computer Network
                              MPC at CFA.HARVARD.EDU
            URL https://www.minorplanetcenter.net/    ISSN 1523-6714
                                    2024 BA2                                    
Observations:
     K24B02A 1C2024 01 10.42287 09 32 24.43 +19 35 36.4          21.4 GVEB084G96
     K24B02A 1C2024 01 10.43845 09 32 27.44 +19 37 05.4          21.8 GVEB084G96
     K24B02A*1C2024 01 19.39171910 07 14.977+34 23 36.38         20.71GVEB084G96
     K24B02A 1C2024 01 19.39688910 07 16.187+34 24 06.62         21.45GVEB084G96
     K24B02A 1C2024 01 19.40206910 07 17.317+34 24 36.76         21.02GVEB084G96
     K24B02A 1C2024 01 19.40723110 07 18.516+34 25 07.64         21.05GVEB084G96
     K24B02A KC2024 01 19.46446810 07 31.670+34 30 43.27         21.72GVEB084I52
     K24B02A KC2024 01 19.46575110 07 31.962+34 30 50.29         21.33GVEB084I52
     K24B02A KC2024 01 19.46702410 07 32.286+34 30 57.85         21.04GVEB084I52
     K24B02A KC2024 01 19.46831010 07 32.574+34 31 05.09         20.87GVEB084I52
     K24B02A 1C2024 01 19.98089 10 09 45.06 +35 20 56.1          20.5 VXEB084033
     K24B02A 1C2024 01 19.98315 10 09 45.67 +35 21 09.1          20.6 VXEB084033
     K24B02A 1C2024 01 19.98778 10 09 46.73 +35 21 37.1          20.5 VXEB084033
     K24B02A KB2024 01 20.02011010 09 55.17 +35 24 51.0          20.4 GXEB084I93
     K24B02A KB2024 01 20.02613010 09 56.59 +35 25 26.6                XEB084I93
     K24B02A KB2024 01 20.03193810 09 57.93 +35 26 00.6          20.4 GXEB084I93
     K24B02A 1C2024 01 20.20240 10 10 38.02 +35 42 24.4          20.6 VXEB084033
     K24B02A 1C2024 01 20.20397 10 10 38.39 +35 42 33.3          20.5 VXEB084033
     K24B02A 1C2024 01 20.20553 10 10 38.81 +35 42 41.8          20.3 VXEB084033
     K24B02A KC2024 01 20.86469710 13 32.72 +36 46 17.8          21.0 GVEB084587
     K24B02A KC2024 01 20.86540310 13 32.92 +36 46 21.7          20.9 GVEB084587
     K24B02A pC2024 01 21.01579910 14 09.42 +37 01 02.4          21.3 GVEB084L01
     K24B02A pC2024 01 21.01877410 14 10.14 +37 01 19.4          21.1 GVEB084L01
     K24B02A pC2024 01 21.02174810 14 10.88 +37 01 36.2          21.2 GVEB084L01
Observer details:
033 Karl Schwarzschild Observatory, Tautenburg.  Observers S. Melnikov, C.
    Hogner, F. Ludwig, M. Hartmann, B. Stecklum.  Measurer B. Stecklum.
    1.34-m f/3 Schmidt + CCD.
587 Sormano.  Observers A. Fumagalli, G. Ventre.  Measurer P. Sicoli.  0.5-m
    f/6.8 reflector + CCD.
G96 Mt. Lemmon Survey.  Observers J. K. Hogan, A. R. Gibbs.  Measurers B.
    Gray, D. Rankin, F. C. Shelly, T. Beuden, V. F. Carvajal, D. Fay, J. B.
    Fazekas, D. C. Fuls, A. R. Gibbs, A. D. Grauer, H. Groeller, J. K. Hogan,
    R. A. Kowalski, S. M. Larson, G. J. Leonard, R. L. Seaman, K. W.
    Wierzchos.  1.5-m reflector + 10K CCD.
I52 Steward Observatory, Mt. Lemmon Station.  Observer R. A. Kowalski.
    Measurers E. C. Beshore, D. Fay, J. B. Fazekas, D. C. Fuls, A. R. Gibbs,
    A. D. Grauer, H. Groeller, J. K. Hogan, R. A. Kowalski, S. M. Larson, G.
    J. Leonard, D. Rankin, R. L. Seaman, F. C. Shelly, K. W. Wierzchos.  1.0-m
    prime focus + CCD.
I93 St Pardon de Conques.  Observer F. Losse.  0.40-m f/3.7 reflector + CMO.
L01 Visnjan Observatory, Tican.  Observer K. Korlevic.  1.0-m f/2.9 reflector
    + CCD.
Orbital elements:
2024 BA2                                                 Earth MOID = 0.1469 AU
Epoch 2023 Sept. 13.0 TT = JDT 2460200.5                Veres                   
M 286.63590              (2000.0)            P               Q                  
n   0.53912524     Peri.   17.82412     -0.61730548     -0.74215887             
a   1.4951208      Node   111.13111     +0.68344048     -0.67022397             
e   0.2482136      Incl.   16.25080     +0.38967045     -0.00020671             
P   1.83           H   23.67          G   0.15           U   8                  
Residuals in seconds of arc
240110 G96  0.2+  0.3-    240119 I52  0.6+  0.0     240120 033  1.2+  0.5+
240110 G96  0.2-  0.3+    240119 I52  0.5+  0.2-    240120 033  1.0+  0.4+
240119 G96  0.1-  0.2+    240119 033  0.5-  0.2+    240120 033  1.5+  0.0
240119 G96  0.3+  0.1-    240119 033  0.4+  0.1-    240120 587  0.3-  0.5+
240119 G96  0.4-  0.5-    240119 033  0.1-  0.6+    240120 587  0.0   0.2+
240119 G96  0.2-  0.0     240120 I93  0.4+  0.1-    240121 L01  0.5-  0.0
240119 I52  0.3+  0.3+    240120 I93  0.4+  0.0     240121 L01  0.3-  0.2-
240119 I52  0.3+  0.1-    240120 I93  0.0   0.3-    240121 L01  0.0   0.6-
Ephemeris:
2024 BA2                 a,e,i = 1.50, 0.25, 16                  q = 1.1240
Date    TT    R. A. (2000) Decl.     Delta      r    Elong.  Phase     V
2023 12 22    08 34 03.3 -02 29 39   0.2363  1.1604   134.0    37.6    22.4
...
2024 01 06    09 17 15.7 +12 58 32   0.1780  1.1367   147.0    28.1    21.4
...
2024 01 14    09 45 37.5 +25 24 56   0.1633  1.1289   150.8    25.2    21.2
...
2024 01 20    10 09 48.4 +35 23 00   0.1619  1.1254   148.7    27.0    21.2
2024 01 21    10 14 04.4 +36 59 35   0.1624  1.1251   148.0    27.6    21.2
2024 01 22    10 18 24.0 +38 34 22   0.1632  1.1247   147.2    28.3    21.2
...
2024 01 28    10 45 23.0 +47 10 40   0.1718  1.1240   141.3    33.2    21.5
...
2024 02 05    11 22 02.2 +55 43 36   0.1920  1.1263   133.3    39.6    21.9
...
2024 02 20    12 17 49.1 +63 35 42   0.2441  1.1402   123.1    46.6    22.7
M. P. C. Staff               (C) Copyright 2024 MPC           M.P.E.C. 2024-B84
    
    
More information about the Iaude
mailing list